Wind_Speed
34 33 33 34 35 36 36 36 37 38 39 39 38 36 32 27 24 21 20 19 18 17 16 16 17 18 19 20 20 20 20 20 20 21 21 21 22 22 24 25 26 27 28 29 30 32 34 36 36 36 37 37 37 37 38 38 38 38 39 40 40 40 41 40 40 41 42 40 36 35 35 35 36 38 39 41 43 45 47 48 49 50 53 57 58 57 59
32 33 34 35 35 36 36 37 38 38 39 38 36 31 27 23 21 20 18 17 17 16 16 16 18 19 20 21 21 21 21 21 22 22 23 23 24 24 26 27 27 29 29 31 32 32 34 36 37 37 37 37 37 37 37 37 37 37 37 38 38 38 37 33 30 31 33 34 33 34 36 38 40 41 43 45 47 50 51 53 54 55 57 61 63 62 63
33 34 35 35 36 36 37 37 38 39 38 35 31 26 23 21 19 18 17 16 16 16 16 18 19 20 21 22 22 22 22 23 23 23 24 25 26 26 28 28 29 30 31 32 33 33 34 35 36 36 36 37 37 36 37 37 36 36 36 35 34 32 30 27 26 27 29 30 32 35 37 40 43 45 47 49 51 54 56 57 58 59 59 63 67 66 66
33 34 34 35 36 36 37 38 38 37 34 30 25 22 20 19 17 16 15 15 16 17 18 19 21 22 22 23 23 23 24 24 24 25 25 26 27 28 29 30 30 31 32 32 33 34 34 34 35 36 36 36 36 36 36 35 35 34 32 29 26 26 27 28 29 30 30 31 34 36 39 42 44 47 50 52 55 58 60 62 63 64 63 64 69 71 70
33 34 34 35 36 37 37 37 36 33 28 24 21 19 18 17 15 15 15 16 17 18 19 21 22 22 23 23 24 25 25 26 26 26 27 28 29 29 30 30 31 31 32 33 33 34 34 34 35 35 35 35 35 35 34 34 33 29 25 23 22 25 28 30 32 33 33 34 37 39 41 44 47 50 53 56 58 61 64 66 67 68 68 68 71 75 75
33 33 34 35 36 37 36 34 30 26 23 20 18 17 15 14 14 14 16 17 19 20 21 22 23 23 24 24 25 26 27 27 28 28 28 29 29 30 30 31 31 31 32 33 33 34 35 35 35 35 36 35 34 33 33 30 27 23 21 22 23 25 29 32 36 38 37 37 40 43 45 48 50 52 55 58 61 64 66 70 71 72 73 73 74 77 80
33 34 35 36 36 35 31 28 24 21 18 16 15 14 14 13 14 16 18 19 21 22 23 24 24 25 25 25 26 27 28 28 29 29 29 29 30 30 31 32 32 32 33 33 34 35 35 36 36 36 35 34 33 32 29 24 21 21 22 23 24 27 31 34 38 42 43 43 45 48 49 52 55 57 59 61 64 67 70 73 75 76 77 78 79 80 84
33 34 35 34 32 28 25 22 19 16 14 13 13 13 13 14 16 18 20 21 22 23 24 24 25 26 26 27 27 28 29 29 29 30 30 31 32 32 32 33 34 34 35 35 35 36 35 35 35 34 33 33 31 27 22 20 21 22 24 26 27 30 33 35 39 44 48 48 50 53 54 56 59 61 64 66 68 70 73 76 79 80 80 82 84 86 88
33 33 31 28 25 22 19 17 14 13 12 12 13 14 15 16 18 20 21 23 24 24 25 25 25 26 27 28 29 29 30 30 30 31 32 32 33 34 35 35 36 36 36 36 35 35 34 33 33 33 32 30 25 21 19 20 23 24 26 29 31 33 35 38 40 45 50 53 54 57 59 60 62 65 67 70 71 73 75 79 83 84 84 85 88 90 92
31 28 25 21 19 17 14 13 12 12 12 13 14 15 17 18 20 21 22 24 24 25 25 26 26 27 28 29 30 30 31 32 32 33 34 34 35 36 36 36 36 36 35 35 34 33 33 33 32 31 27 23 20 19 20 22 24 27 29 32 34 36 38 40 43 46 51 55 57 60 62 63 66 68 71 73 75 76 78 82 87 89 89 90 92 94 95
24 21 18 16 14 12 12 12 12 12 13 15 16 18 19 20 21 21 23 24 25 25 26 27 27 28 29 30 31 32 33 34 35 35 36 36 36 36 36 36 35 34 34 33 33 33 33 32 29 24 20 18 19 21 22 24 27 29 32 34 37 39 41 44 46 48 52 57 60 63 65 67 69 72 74 76 77 78 80 84 89 92 94 95 97 99 100
17 15 13 12 11 11 11 12 13 14 15 17 18 19 20 21 22 22 23 25 26 26 28 29 29 30 32 33 33 34 35 36 36 36 36 36 36 35 34 34 33 33 33 33 33 32 30 26 21 18 18 19 21 23 25 28 30 33 35 37 40 42 45 47 50 52 55 59 62 65 67 70 72 75 77 79 80 81 83 85 91 95 97 98 101 103 104
12 11 10 10 10 11 12 13 14 16 17 18 19 20 21 22 24 24 25 26 28 28 29 31 32 33 34 35 35 36 36 36 36 35 35 34 34 33 33 33 33 34 33 33 31 27 23 19 17 18 19 22 24 26 28 31 33 35 38 40 43 46 49 51 54 56 59 62 65 69 71 73 76 78 80 81 83 85 86 87 92 97 99 100 102 105 107
9 9 10 10 11 12 13 15 16 17 18 19 20 22 23 24 25 26 27 28 29 30 31 32 33 34 35 36 36 36 36 36 35 34 33 33 33 34 34 34 34 34 32 29 25 20 17 17 18 20 22 24 27 29 31 34 36 39 42 44 47 50 53 56 58 61 63 65 69 72 75 77 80 82 83 84 85 88 89 89 92 97 101 103 105 108 110
9 9 10 11 12 14 15 16 17 18 19 21 22 23 24 25 27 28 29 30 31 32 33 34 35 36 36 36 36 36 35 34 33 33 34 34 35 35 35 34 33 31 27 22 18 16 17 19 21 23 25 28 30 32 35 37 40 43 46 49 51 54 58 60 63 65 67 70 72 75 77 80 82 84 86 87 89 91 94 94 96 100 104 107 110 112 114
10 11 12 13 14 15 16 18 19 20 21 22 23 25 26 27 28 30 31 31 32 33 34 35 36 36 36 36 35 35 34 34 34 34 35 35 35 34 33 32 29 25 21 17 16 17 19 22 24 26 28 30 33 35 38 41 43 47 50 52 55 59 61 64 67 69 72 75 77 80 81 82 84 86 88 90 92 95 98 99 101 104 109 112 115 117 119
11 12 13 15 16 17 18 19 20 21 22 24 25 26 27 28 30 31 32 33 33 34 35 35 36 35 35 35 35 35 35 35 35 35 35 35 34 32 30 27 23 19 17 17 18 20 22 24 27 29 31 33 36 38 41 44 47 50 53 56 59 62 65 68 71 73 76 79 81 83 85 86 88 89 91 93 96 99 102 104 105 108 112 116 119 121 123
13 14 15 16 17 18 19 20 22 23 24 25 26 28 29 30 31 32 33 33 34 34 35 35 35 35 35 35 35 36 36 35 35 34 34 33 31 28 25 22 18 17 17 19 21 23 25 27 29 32 35 37 39 41 44 47 51 54 57 59 62 65 68 71 74 76 80 82 83 85 87 89 91 93 95 97 100 103 106 108 111 113 115 118 122 125 127
15 16 17 18 19 20 21 22 23 25 26 27 28 29 30 31 32 33 33 34 34 34 35 35 35 36 36 36 36 36 36 35 34 33 31 29 27 23 20 18 17 18 20 22 24 26 29 30 32 35 37 40 43 45 48 51 54 57 60 62 65 68 71 74 76 79 82 83 85 86 88 91 94 97 99 102 104 106 109 111 114 118 120 122 125 129 132
16 17 18 19 20 21 23 24 25 26 27 29 30 30 31 32 33 33 34 34 34 35 36 36 36 37 37 36 36 36 35 34 32 31 28 26 23 19 18 18 19 21 23 25 27 29 31 34 36 38 40 43 46 49 52 55 58 60 63 65 68 71 74 77 79 82 83 85 86 88 90 93 97 99 102 105 108 111 113 115 118 122 125 128 131 134 137
18 19 20 21 22 23 24 26 27 28 29 30 31 31 32 33 33 34 34 35 36 36 37 37 36 36 35 35 34 34 33 31 30 27 25 22 20 18 18 20 22 24 26 28 30 32 34 37 39 41 43 46 50 53 56 58 61 63 66 68 71 74 77 79 82 83 84 86 88 91 94 97 101 103 106 109 113 116 119 122 124 127 131 134 137 139 141
19 20 22 23 24 25 26 27 28 29 30 31 31 32 33 34 34 35 36 36 37 37 37 36 35 34 33 32 32 31 30 29 27 24 22 20 19 19 20 22 24 27 29 31 33 35 37 39 42 45 47 50 53 57 60 62 64 67 70 72 75 78 79 81 83 85 87 89 91 94 97 101 105 108 111 114 118 122 125 129 131 134 137 139 140 141 141
21 22 23 25 25 27 27 28 29 30 31 31 32 33 34 34 35 35 36 36 36 35 35 34 33 31 31 30 29 29 28 26 24 22 20 19 20 21 23 25 27 29 31 33 35 38 40 43 45 48 51 54 57 60 63 66 68 71 73 76 78 80 81 83 84 87 90 93 96 98 102 106 109 113 116 119 122 125 129 132 135 137 139 141 141 141 139
23 24 25 25 26 27 28 29 30 30 31 32 33 33 34 34 34 34 34 33 33 33 32 31 30 29 28 28 27 27 26 24 22 20 20 20 21 23 25 27 30 32 34 37 39 41 44 46 49 52 55 58 61 63 66 69 72 75 77 78 80 81 83 85 87 90 94 97 100 103 106 109 113 116 119 121 124 128 131 134 136 138 139 139 139 136 133
24 24 25 26 27 28 28 29 30 31 31 32 32 32 32 32 32 31 31 30 30 30 29 29 28 27 26 26 26 25 24 22 21 20 21 22 24 25 28 30 32 35 37 40 42 45 47 50 53 56 59 62 64 67 69 72 75 77 79 80 81 83 85 87 90 94 97 100 103 106 109 112 116 119 121 124 126 129 132 134 136 137 137 136 134 131 127
24 25 26 26 27 28 28 29 29 30 30 30 30 30 30 29 29 28 28 29 28 28 28 27 27 26 25 25 24 24 22 21 21 21 22 24 26 28 30 33 36 38 41 43 46 48 50 53 56 59 62 65 68 71 73 75 77 78 79 81 83 85 88 91 93 97 100 104 106 108 110 113 117 121 124 126 129 131 133 135 136 135 133 131 127 124 122
25 25 26 27 27 28 28 28 28 28 28 28 28 27 27 27 27 27 28 28 28 28 27 26 26 25 24 24 23 23 22 22 22 23 25 26 29 31 33 36 39 41 44 46 49 52 54 57 60 62 65 68 71 73 75 77 78 79 81 83 86 89 92 94 97 100 103 106 109 111 113 116 119 123 126 129 131 132 133 133 132 130 127 124 121 119 118
24 25 26 26 27 27 27 27 27 27 26 26 26 26 26 26 26 27 27 27 27 27 27 26 25 24 23 23 23 23 23 23 24 25 27 29 32 34 37 39 42 45 47 50 53 55 58 61 63 66 68 71 72 74 76 77 79 81 84 87 90 93 96 99 101 104 107 110 114 117 120 122 125 127 130 131 132 131 130 129 127 124 122 120 119 117 115
24 25 25 25 26 26 26 25 25 25 25 24 24 25 25 26 26 26 26 26 26 26 26 25 25 24 23 23 23 24 24 25 26 28 30 32 35 37 40 43 46 48 51 54 56 59 62 64 66 68 70 71 72 74 77 79 82 85 88 91 95 98 101 103 106 109 112 116 119 123 126 128 129 130 131 131 130 128 126 124 122 120 119 118 117 115 113
23 24 24 24 24 24 24 24 24 24 23 23 24 25 25 25 25 25 26 26 26 26 25 25 25 24 24 24 24 25 26 28 29 31 33 36 38 41 43 46 49 52 54 57 59 61 63 65 67 68 70 72 74 77 80 83 85 89 92 95 98 102 105 108 112 115 118 121 123 126 130 132 132 131 129 128 127 124 122 120 118 117 116 115 113 112 111
22 23 23 23 23 23 23 23 23 23 23 23 24 24 24 25 25 25 25 25 25 25 25 25 25 25 25 25 26 27 29 30 32 34 36 38 41 44 46 49 51 53 56 58 60 61 63 65 67 69 71 74 77 80 84 87 90 93 96 99 102 106 109 113 116 119 122 124 124 125 127 128 129 128 126 123 121 120 118 116 115 114 113 112 111 111 110
21 21 21 21 21 21 22 22 22 22 22 23 23 24 24 24 24 25 25 25 25 25 26 26 26 26 27 27 28 29 31 32 34 36 38 40 43 45 47 49 51 53 55 57 59 61 63 66 69 72 75 78 81 85 88 90 93 96 100 103 106 109 113 116 119 122 124 125 124 122 120 120 121 121 119 117 116 115 115 114 113 112 111 111 110 110 109
20 20 20 20 20 20 20 21 21 21 22 22 23 23 24 24 24 25 25 25 26 26 26 27 27 28 28 29 30 31 32 34 35 37 39 41 43 45 47 49 51 53 55 57 59 62 65 68 72 76 79 83 86 89 92 94 97 100 103 107 110 113 116 119 121 122 122 121 120 118 116 115 115 114 113 113 113 112 112 112 111 111 110 109 109 108 109
18 18 18 19 19 19 20 20 21 21 22 22 22 23 24 24 24 25 25 26 26 26 27 27 28 29 29 29 30 32 33 34 36 38 40 42 44 46 48 50 52 54 57 59 62 66 69 73 76 80 83 86 90 93 96 98 102 105 107 110 113 115 117 118 118 118 116 115 114 114 114 113 113 113 112 111 111 111 111 111 110 109 108 107 107 107 108
16 17 17 18 18 19 19 20 20 21 22 22 23 23 24 24 25 25 25 26 26 27 27 28 28 29 30 31 31 33 34 36 38 40 41 43 45 47 49 52 54 57 61 64 67 70 74 77 81 84 87 90 94 97 99 102 105 108 110 112 114 115 115 113 111 110 110 110 111 111 111 112 112 112 112 112 111 110 110 109 108 108 107 107 107 107 107
17 17 17 18 18 19 19 20 21 21 22 23 23 24 24 25 25 26 26 27 27 27 28 29 30 31 32 33 34 35 37 38 40 41 43 45 47 50 53 56 59 62 65 69 72 75 79 82 86 89 92 95 98 100 103 105 108 110 112 113 113 112 110 108 105 104 105 107 109 110 110 111 112 112 112 111 111 110 108 107 106 106 105 105 105 104 103
17 17 17 18 18 19 19 20 21 21 22 23 24 24 24 25 26 26 26 27 28 28 29 30 31 32 33 34 36 37 38 40 42 44 47 49 52 55 58 61 64 67 70 73 77 80 83 87 90 93 96 99 102 104 106 108 110 111 112 112 110 108 105 103 102 102 103 105 106 107 107 108 109 109 109 109 109 108 107 106 104 104 103 103 101 100 99
17 17 18 18 19 19 19 20 20 21 22 22 23 24 24 25 25 26 27 27 28 29 30 31 31 32 34 35 37 39 41 43 46 49 51 54 57 60 62 65 69 72 75 78 81 84 87 91 94 97 99 102 105 107 108 110 111 111 110 108 105 103 102 102 102 102 102 102 102 102 102 102 103 103 104 105 105 105 105 104 104 104 103 102 100 98 97
18 18 18 18 19 19 19 20 20 21 21 22 22 23 24 25 26 27 28 28 29 30 31 32 33 34 36 38 40 43 45 48 50 53 56 59 62 64 67 71 74 77 79 82 85 88 91 94 97 100 102 105 107 108 109 110 109 108 105 103 102 101 102 102 103 103 103 103 103 103 103 102 101 101 101 101 102 102 103 104 105 104 103 101 99 97 95
18 18 19 19 19 19 20 20 20 21 21 22 23 23 24 25 26 27 28 29 30 31 33 34 36 38 40 42 45 47 50 52 55 58 60 63 66 69 72 75 78 81 84 87 89 92 95 97 100 102 105 106 107 108 108 107 105 103 101 101 101 101 101 102 102 103 103 104 104 104 104 104 103 102 101 101 101 101 102 103 103 102 100 99 97 95 93
20 20 20 20 20 20 21 21 22 22 22 23 24 24 25 26 27 28 29 31 33 34 36 37 40 42 44 47 49 51 54 56 59 62 65 68 71 74 77 79 82 85 87 90 92 95 98 100 102 104 106 107 107 106 105 103 101 100 99 99 99 100 100 100 101 101 102 103 103 104 104 104 104 103 103 103 103 103 102 101 100 99 97 96 95 93 91
24 23 23 23 23 23 22 22 23 24 24 24 25 26 27 29 30 31 33 34 36 38 40 42 44 46 48 51 53 55 58 61 63 66 69 72 75 78 80 83 86 88 90 93 95 98 100 102 103 105 105 105 104 102 100 99 98 98 98 98 98 98 98 99 99 100 101 102 102 103 104 104 104 104 104 104 104 103 101 99 98 97 96 95 93 92 90
29 28 27 26 26 26 25 25 25 26 27 28 28 30 31 32 34 35 37 38 39 41 43 45 47 49 51 54 56 59 61 64 67 70 73 76 78 81 83 86 88 91 93 95 97 99 101 103 103 104 104 102 100 98 97 97 97 97 97 96 96 97 97 98 99 99 101 101 102 103 103 104 104 105 104 104 103 102 100 99 98 97 95 94 92 91 89
32 31 31 30 30 29 29 29 29 30 30 31 32 33 34 35 36 38 39 40 42 44 46 48 50 52 54 57 59 62 65 68 70 73 76 79 82 84 87 89 91 93 95 97 99 100 101 102 102 101 100 98 97 96 96 95 95 95 95 95 95 96 96 98 99 99 100 100 101 102 103 103 104 104 104 103 102 100 99 98 97 96 94 93 92 90 88
33 33 33 33 33 33 33 33 33 33 33 33 34 35 36 37 38 39 41 42 44 46 49 51 53 55 57 60 62 65 68 71 73 77 79 82 85 88 90 92 94 95 97 98 100 101 101 101 99 98 96 95 95 94 93 93 93 92 93 93 94 95 96 97 98 98 98 99 100 101 102 103 103 103 103 102 100 99 98 96 95 94 93 92 90 89 88
34 34 35 35 35 35 35 35 35 35 36 36 37 37 38 39 40 42 43 45 47 49 50 52 55 57 60 63 65 68 71 74 77 80 83 86 88 91 93 94 96 97 98 99 99 99 99 97 96 95 94 94 93 92 91 91 91 91 91 92 93 94 96 97 97 98 98 99 100 101 102 102 102 102 102 101 100 99 97 95 94 92 91 90 88 86 85
33 34 35 36 37 37 37 37 37 38 38 39 39 40 40 41 42 44 45 47 48 50 52 54 57 60 62 65 68 71 74 78 81 84 87 89 92 94 95 96 97 98 98 98 98 97 96 94 94 94 93 92 91 90 90 90 90 90 91 92 93 94 95 96 97 98 99 100 101 102 102 102 102 101 101 101 99 98 96 95 93 92 91 89 86 85 84
34 34 35 36 37 38 39 39 39 40 40 40 41 41 42 43 44 45 46 48 49 51 54 57 60 63 66 69 72 75 79 82 85 88 90 92 95 96 97 98 98 98 98 97 96 95 94 93 93 93 92 90 90 89 89 89 90 90 91 92 93 94 95 97 98 99 100 101 101 101 101 101 101 101 101 100 98 97 95 94 93 91 89 87 86 85 85
35 35 35 37 38 39 40 40 40 40 40 41 41 42 43 44 45 46 47 49 51 54 57 60 63 66 70 73 76 80 83 86 89 91 93 95 97 98 99 99 98 98 96 94 93 93 92 92 92 91 90 90 89 89 89 89 90 91 92 92 93 94 96 98 99 100 101 101 101 101 101 101 100 100 99 98 97 96 94 93 91 90 88 87 87 86 86
37 36 37 38 39 40 40 40 40 40 41 41 42 43 43 44 45 47 49 52 55 58 61 64 68 71 74 78 81 84 87 90 92 94 96 98 98 99 99 99 98 96 94 93 92 92 92 91 91 90 90 90 90 89 89 90 91 91 92 93 94 96 97 99 101 101 102 102 101 101 101 101 100 99 97 96 95 95 94 92 90 89 89 89 89 88 87
39 39 39 39 39 40 41 41 41 41 41 42 42 43 44 46 47 50 53 56 59 62 66 69 73 76 79 83 86 89 91 93 95 97 98 99 99 99 99 98 96 95 93 93 92 92 91 90 89 89 90 90 90 90 90 90 91 91 92 94 96 97 99 100 101 102 102 102 102 101 101 100 99 97 96 95 94 93 93 92 90 90 90 90 90 89 88
44 42 41 41 41 42 42 42 42 43 43 44 45 46 47 49 51 54 57 61 64 67 71 74 77 81 84 87 90 92 95 96 98 99 99 99 99 99 99 97 96 94 93 92 92 92 91 90 90 90 90 90 90 90 90 91 91 93 94 96 98 99 100 101 101 102 102 102 102 101 100 99 97 96 94 94 93 92 91 91 90 90 90 91 91 90 88
Wind_Direction
277 283 288 290 292 294 296 297 298 300 302 304 304 303 301 298 295 294 292 292 292 292 294 297 300 300 300 300 300 300 299 300 301 302 302 301 301 300 298 297 297 296 295 294 293 292 292 292 293 294 294 295 295 295 295 295 296 297 298 299 300 301 301 301 301 302 302 307 314 318 318 316 316 317 317 317 315 314 314 314 314 315 314 313 314 315 314
282 286 289 291 293 294 296 297 299 301 303 303 302 299 296 294 292 291 290 291 291 293 296 299 300 299 299 298 298 299 299 301 302 303 303 303 303 302 301 300 299 298 296 295 294 294 293 293 294 295 295 294 295 294 295 295 296 298 300 301 301 301 300 301 303 303 307 314 319 320 317 316 316 317 317 316 315 314 314 314 315 316 316 315 314 315 316
285 287 289 291 293 294 296 298 300 302 302 301 298 295 293 292 290 289 290 291 292 296 299 300 299 298 297 298 299 300 301 302 303 304 304 304 304 303 302 301 300 299 298 297 296 295 295 294 294 294 294 293 293 294 295 297 298 300 301 300 300 299 300 302 303 304 309 314 315 314 314 314 315 315 315 315 314 315 314 314 314 315 317 315 313 315 316
285 287 290 291 293 295 297 299 301 301 299 296 294 293 292 290 289 290 291 293 295 298 299 297 296 296 297 298 300 301 302 303 304 305 305 305 305 304 302 302 301 300 299 298 297 296 295 293 293 292 292 292 293 295 297 298 299 299 298 297 297 298 301 303 304 305 310 311 310 310 311 312 313 314 314 315 315 315 314 314 314 315 316 316 313 314 315
286 288 289 291 294 296 298 299 299 296 294 292 292 292 290 288 290 292 294 297 298 298 296 295 295 296 298 300 301 303 305 306 307 307 307 307 306 304 304 303 302 301 300 298 297 295 294 293 293 292 293 294 296 297 298 298 298 296 294 293 296 299 301 303 304 305 309 311 309 310 311 311 313 314 314 314 314 314 313 313 314 314 315 316 314 314 315
287 288 290 293 296 297 297 296 294 291 291 292 291 290 288 289 292 295 296 297 296 295 295 295 297 299 301 303 305 307 308 309 310 309 309 307 306 305 304 302 301 300 298 297 296 294 294 294 294 294 296 297 297 297 297 297 294 291 290 294 298 300 302 304 305 306 309 310 310 311 312 312 313 313 313 313 313 313 314 314 314 314 315 315 315 315 314
288 290 293 295 296 295 293 291 289 289 290 290 288 286 288 291 294 295 295 294 294 295 297 298 300 303 306 307 309 310 310 310 310 309 308 306 305 303 303 301 300 298 296 295 294 294 294 295 296 297 298 298 298 298 297 293 290 290 293 296 299 300 302 306 308 308 309 311 312 312 313 313 313 313 313 314 314 314 315 314 313 314 315 315 315 315 314
290 292 293 294 293 291 289 288 288 288 286 284 284 285 289 293 294 294 294 295 297 299 301 303 305 308 310 311 310 310 309 308 307 306 305 304 303 302 301 300 299 297 296 296 296 296 297 297 298 298 297 298 298 296 293 291 291 294 296 297 299 302 304 306 309 309 310 312 313 313 313 313 314 314 314 314 315 315 315 314 313 313 315 315 315 315 315
291 292 292 290 288 287 286 287 285 282 279 279 283 288 292 293 294 296 297 299 302 304 306 308 309 310 311 310 309 308 306 305 304 303 303 303 302 302 301 300 299 299 298 299 299 299 299 297 296 297 297 297 295 292 290 292 294 295 297 298 300 303 304 306 309 309 310 312 313 312 313 313 314 314 314 314 315 316 315 314 313 313 314 315 315 315 315
290 289 288 286 285 284 282 279 275 273 277 284 289 292 293 295 297 299 301 303 305 307 308 309 309 309 309 307 305 305 304 303 303 303 303 304 303 302 302 302 301 301 301 301 300 299 297 296 297 297 295 292 289 289 292 293 294 296 298 299 301 304 305 307 308 309 309 310 311 311 312 313 314 314 314 315 316 316 316 315 313 313 315 315 315 315 315
286 285 284 282 279 275 270 269 272 280 286 291 293 294 296 299 301 304 305 305 306 307 307 308 308 307 306 304 303 303 303 303 304 305 305 305 304 304 304 303 303 302 301 300 298 297 297 297 296 294 290 286 288 291 293 294 295 297 299 301 302 304 305 307 308 309 309 309 310 310 311 313 315 315 314 315 315 315 315 314 313 313 315 315 315 315 315
282 279 276 272 266 265 268 275 284 289 292 294 296 298 301 303 304 305 306 305 306 307 306 306 306 305 304 303 303 304 304 305 306 306 306 306 306 305 305 304 303 301 299 298 298 298 297 295 291 287 285 287 290 292 294 295 298 299 300 301 303 304 306 307 308 308 308 308 309 310 312 314 314 314 314 314 314 314 315 314 313 313 315 315 315 315 314
273 268 263 263 266 273 281 288 292 295 296 298 299 301 303 304 304 305 305 304 306 306 306 305 305 304 304 304 305 305 306 306 307 308 308 307 307 306 304 302 300 299 298 298 298 297 293 287 285 285 287 290 292 294 296 297 299 299 300 302 303 305 306 307 307 308 308 310 311 312 313 314 314 313 313 314 314 314 314 315 313 313 313 313 313 313 313
260 260 265 273 281 288 292 294 295 296 298 299 301 302 303 304 305 305 306 306 306 306 305 305 304 304 304 305 306 306 307 308 309 309 309 308 306 304 302 301 299 298 298 297 295 290 285 283 286 288 289 291 294 296 298 298 299 300 302 304 306 307 307 307 308 309 310 311 312 313 314 314 314 313 313 314 314 313 313 313 312 311 311 312 312 312 312
264 273 281 288 292 293 294 294 295 297 300 302 303 304 304 305 305 305 306 306 305 304 304 304 303 304 305 306 306 307 308 309 310 310 309 308 305 303 301 299 298 298 296 293 286 282 283 285 288 290 292 295 297 299 300 301 303 304 306 307 308 308 307 308 309 311 312 313 313 313 314 314 313 313 313 313 313 312 312 313 312 312 312 312 312 312 312
282 287 290 291 291 292 294 296 298 301 303 304 304 304 305 306 306 305 305 304 304 304 303 303 304 305 305 306 307 308 309 309 310 310 309 307 304 302 300 299 297 295 290 284 280 281 285 287 290 292 295 297 299 301 303 304 305 306 307 307 307 308 309 310 312 313 313 314 314 314 314 313 312 312 313 313 313 312 312 313 313 312 312 312 312 313 313
287 288 288 289 292 295 298 301 303 304 304 305 305 305 305 305 304 304 303 303 303 303 303 304 304 305 306 306 307 307 308 309 309 309 307 304 302 300 298 296 293 288 282 280 281 284 286 289 292 294 296 297 299 302 303 305 306 306 307 307 308 309 311 312 313 314 314 314 314 314 314 313 312 312 312 313 312 312 312 313 313 313 313 312 312 312 312
287 288 291 295 298 300 302 303 304 304 305 305 304 304 304 303 303 302 302 303 303 303 304 304 305 305 306 306 306 307 307 308 307 305 303 301 299 297 295 291 286 281 279 281 283 286 289 291 294 296 298 299 301 302 304 304 305 306 307 308 310 311 312 313 313 314 313 313 313 313 313 313 312 312 312 312 312 312 313 313 313 312 312 312 312 312 312
292 295 298 299 301 302 303 304 304 304 304 304 304 303 303 303 302 303 303 304 304 304 304 304 305 305 305 306 306 306 306 305 304 302 300 299 297 293 289 283 279 278 280 283 286 289 292 294 296 298 300 301 303 304 304 305 305 306 308 309 310 311 312 312 313 312 312 312 313 312 312 312 311 312 312 312 312 312 312 312 312 312 312 312 312 312 313
298 299 300 301 302 303 304 305 305 304 304 304 304 304 303 303 304 304 305 305 305 305 305 305 306 306 306 306 306 305 304 302 301 299 299 297 294 288 281 278 277 279 282 286 289 291 293 296 298 300 302 303 304 304 305 305 306 307 309 310 310 311 312 312 312 312 312 312 312 312 312 311 311 311 312 312 312 311 311 312 312 312 312 313 314 314 315
300 301 302 303 304 305 305 305 305 305 305 304 305 305 305 305 306 306 306 307 307 307 307 308 308 308 307 306 305 303 302 300 299 299 297 294 288 281 277 276 279 282 286 289 291 294 296 299 300 302 303 303 303 304 305 306 307 308 309 310 310 311 311 311 311 311 311 311 311 311 311 311 311 311 312 312 312 312 313 313 314 314 314 315 315 316 316
303 304 305 306 306 306 306 306 306 306 306 306 306 307 307 307 308 308 309 309 310 310 310 310 310 310 308 307 305 303 302 301 300 298 294 288 282 278 276 278 281 285 289 291 294 296 298 299 301 302 302 303 304 305 306 307 308 309 310 310 311 311 311 311 311 311 311 311 311 311 311 311 312 313 313 314 314 314 314 315 315 315 315 315 315 315 314
306 306 306 306 306 307 307 307 307 308 308 308 308 308 309 310 310 311 311 311 312 312 312 313 312 312 310 309 307 305 304 302 300 295 289 283 279 277 278 281 284 288 291 293 295 297 298 299 301 302 303 304 306 307 307 308 309 310 310 311 311 311 312 312 312 311 311 311 312 312 313 314 314 314 315 315 315 314 315 315 314 314 314 313 313 314 314
306 306 306 307 307 308 308 308 309 309 309 309 309 310 311 312 312 313 313 313 314 314 315 315 314 314 312 311 308 306 304 302 297 291 285 281 279 279 282 285 288 291 293 295 297 298 299 301 302 304 305 306 307 307 308 309 310 310 310 311 311 312 312 311 311 311 312 313 314 314 315 315 314 314 314 314 314 313 313 312 312 312 312 312 313 314 315
306 306 307 308 309 309 309 309 310 310 310 310 311 312 313 313 314 315 315 316 316 317 317 317 317 315 314 312 309 307 304 300 295 289 285 283 282 284 286 289 292 294 295 297 299 300 301 303 304 305 306 307 308 308 309 309 310 310 311 311 311 311 311 312 312 313 313 314 314 315 315 314 314 314 313 312 311 311 310 310 310 311 312 313 314 315 316
308 308 309 309 309 309 310 310 310 310 311 312 313 314 315 315 316 317 318 318 319 320 320 320 319 318 316 313 311 308 304 299 294 290 287 287 287 288 290 292 294 296 297 299 301 302 303 305 306 306 307 308 309 309 309 310 310 311 311 311 311 311 311 312 313 313 314 314 314 314 313 312 311 311 310 310 309 309 310 310 311 313 314 315 315 316 317
309 309 309 310 310 310 310 311 311 312 313 315 316 317 318 318 320 320 321 321 322 322 322 322 321 319 317 315 313 310 305 300 296 293 291 291 291 292 294 295 297 298 300 302 303 304 305 306 307 308 308 309 309 309 310 310 310 311 311 311 311 312 313 313 314 314 314 313 312 312 311 310 309 309 309 310 310 310 311 312 313 314 315 316 317 318 318
310 310 310 310 310 310 311 313 314 316 317 318 319 320 321 322 323 323 323 323 323 323 323 323 321 320 319 318 315 311 307 302 299 297 295 294 294 295 297 298 300 301 303 304 305 306 307 307 308 308 309 309 309 310 310 310 310 311 311 312 313 313 314 314 314 313 312 312 311 311 311 310 310 311 311 311 311 312 312 314 315 316 316 317 318 318 318
310 311 311 311 312 313 314 316 318 319 320 321 322 323 323 324 324 324 324 325 325 324 324 324 324 323 322 321 317 313 309 306 302 300 298 298 298 299 300 301 302 303 304 305 306 307 307 308 308 309 309 310 310 310 310 310 311 312 313 314 314 315 314 314 313 313 312 312 312 312 312 312 312 312 312 312 313 314 315 316 316 317 317 318 318 318 318
312 312 312 313 314 316 317 319 320 321 322 323 323 324 325 325 325 325 326 326 326 326 326 326 326 325 324 322 319 315 312 308 305 303 302 301 301 302 303 303 304 305 306 307 307 308 308 309 309 310 310 310 310 310 311 312 313 314 315 315 315 314 314 314 313 313 312 313 313 313 313 312 313 313 313 314 315 316 316 317 317 317 317 318 318 319 319
313 314 315 316 317 318 319 320 322 323 324 324 324 325 326 326 326 326 327 328 328 328 328 328 328 327 326 323 320 317 314 311 309 307 306 305 305 305 306 306 306 306 307 308 308 309 310 310 310 310 311 311 312 312 313 315 315 316 316 315 315 314 314 313 313 313 313 313 313 313 313 313 313 314 315 315 316 316 316 317 317 318 319 319 320 321 321
317 318 319 319 320 320 321 322 323 324 324 324 325 326 327 327 327 328 328 329 329 330 330 331 330 329 327 325 321 319 316 314 312 311 310 309 308 308 307 308 308 308 309 310 311 311 311 311 311 312 313 313 314 315 316 316 316 315 315 314 314 313 313 313 313 313 313 313 313 313 312 312 313 314 314 315 316 316 317 318 319 320 321 322 322 322 322
322 322 322 322 322 322 322 323 324 324 324 325 326 327 328 329 329 330 330 331 331 331 332 332 331 329 328 326 323 321 319 316 315 313 312 311 310 310 311 311 311 312 312 312 311 311 312 313 314 314 315 316 316 316 316 316 315 315 314 314 314 313 313 313 313 313 313 313 313 312 312 313 313 314 315 316 317 318 319 320 321 322 322 322 323 323 323
327 326 325 325 324 323 323 323 323 324 325 327 327 328 329 330 331 332 332 332 333 333 333 333 331 329 328 326 324 322 320 318 317 316 315 314 315 314 314 313 313 312 312 313 313 314 315 316 316 317 317 317 316 316 316 315 315 314 314 314 314 314 314 314 314 313 313 313 313 313 314 314 315 316 317 318 319 320 321 322 322 323 323 323 323 323 323
332 330 328 327 326 325 325 325 325 326 327 328 329 329 331 331 332 333 334 334 335 334 334 333 331 329 328 327 325 323 322 321 320 319 318 317 316 315 314 314 314 314 315 316 317 318 318 318 318 318 317 317 316 315 315 315 314 314 314 314 314 313 313 313 313 313 313 313 314 314 315 316 317 318 319 320 321 322 322 322 323 323 324 324 324 324 324
338 335 333 331 330 329 329 328 328 329 329 330 330 331 332 333 333 335 335 335 335 335 334 333 332 330 329 327 326 325 323 322 320 318 317 316 316 315 316 317 317 318 319 319 320 320 320 319 319 318 317 316 315 315 315 314 314 314 314 314 314 314 314 314 314 315 315 315 315 316 317 318 319 320 321 321 322 322 323 323 323 324 324 324 324 324 323
343 340 338 335 334 333 332 332 331 332 331 331 332 332 333 334 334 335 335 335 334 334 333 331 330 329 328 326 325 323 321 319 318 318 317 318 318 319 319 320 320 321 321 322 322 321 320 319 318 317 316 316 315 315 315 315 315 315 315 315 315 315 316 316 316 316 316 316 317 318 319 320 320 321 321 322 322 323 323 323 323 324 324 324 324 324 323
346 343 341 338 337 336 335 334 334 333 333 333 333 333 333 333 333 333 333 333 332 331 330 329 328 327 325 324 322 320 319 319 319 320 321 321 321 321 322 322 322 323 323 322 321 320 319 318 317 317 316 315 315 315 315 316 316 316 316 317 317 318 318 317 317 317 317 317 318 318 318 319 319 320 321 322 322 323 323 324 324 324 325 325 324 324 324
348 346 343 340 339 338 336 335 335 334 334 333 332 332 332 332 332 332 331 330 329 328 328 327 326 325 323 322 321 321 322 322 323 323 323 323 323 323 324 324 324 323 323 322 321 320 319 318 317 317 316 316 316 316 317 317 317 318 318 319 319 319 319 319 319 319 319 319 319 319 320 320 321 322 322 323 323 324 325 325 325 325 325 325 325 325 325
351 348 345 342 340 339 338 336 334 334 333 332 331 331 331 330 329 329 329 328 327 327 327 326 325 325 324 324 324 324 325 325 325 325 325 325 325 325 325 324 324 323 322 321 320 320 319 318 317 317 317 317 317 318 318 319 319 320 321 321 321 321 320 320 319 320 320 320 321 321 321 322 323 324 324 325 325 326 326 326 325 325 325 325 326 326 326
353 350 348 345 342 340 338 336 334 333 332 331 330 329 329 328 328 328 328 328 328 328 327 327 327 326 326 326 326 326 326 327 327 327 327 326 326 325 324 323 323 322 322 321 320 319 319 318 318 318 318 319 319 320 320 321 322 322 322 322 322 321 320 320 320 321 321 321 322 322 323 324 324 325 326 326 327 327 326 326 326 326 326 326 327 327 328
354 352 349 347 344 341 338 335 333 332 330 329 329 328 329 329 329 329 329 329 330 329 329 329 328 328 328 328 328 328 328 328 328 327 327 326 325 324 323 323 322 322 321 321 320 320 319 319 319 319 320 320 321 321 322 323 323 323 323 322 322 321 321 321 321 321 322 322 323 324 324 325 326 326 327 327 327 327 327 327 327 327 328 328 328 329 329
353 351 349 346 344 342 338 336 334 333 332 331 331 330 330 331 331 331 332 332 331 330 330 329 329 329 329 329 329 330 329 328 327 326 325 325 324 323 323 322 322 322 321 321 321 321 321 320 321 321 321 322 323 324 324 324 324 324 323 322 322 322 322 322 322 323 323 324 324 325 325 326 326 327 327 327 327 328 328 329 329 329 329 329 330 330 330
352 349 347 345 344 342 340 338 337 335 334 333 333 332 332 332 332 333 332 332 331 330 330 330 330 330 330 330 329 329 328 327 326 325 324 324 323 323 323 322 322 322 322 322 322 322 322 322 322 322 323 324 325 325 325 325 324 324 323 323 323 323 323 323 323 324 325 325 325 326 326 327 327 327 327 328 329 329 330 330 330 330 330 331 331 331 331
350 348 346 345 343 342 340 338 337 336 335 334 334 334 334 333 333 333 332 332 332 331 331 331 331 331 330 329 328 327 326 325 325 324 324 324 323 323 323 323 323 323 323 323 323 323 323 323 323 324 325 325 325 325 325 325 324 324 324 324 324 324 324 324 324 325 326 326 326 326 327 327 327 328 328 329 330 330 331 331 331 331 332 332 332 333 332
347 346 344 343 341 339 338 337 336 335 335 335 335 335 335 334 334 334 333 332 332 332 331 331 330 329 328 327 326 325 325 324 324 324 324 324 324 324 323 324 324 324 324 324 324 324 324 324 325 325 325 326 326 326 325 325 325 325 326 326 326 325 325 325 325 326 327 327 327 328 328 328 329 329 330 330 331 332 332 332 332 333 333 333 333 333 332
345 343 342 340 338 337 336 336 336 335 335 335 335 335 335 334 334 333 333 332 332 331 330 329 328 327 326 325 325 325 325 325 325 325 325 325 325 324 325 325 325 325 325 325 325 325 325 326 326 326 326 326 326 326 326 327 327 327 327 327 327 326 326 326 326 327 328 328 328 329 329 329 330 331 331 331 332 332 333 333 334 334 334 334 334 334 333
344 342 339 337 336 335 335 335 335 335 335 335 334 334 334 333 333 332 332 331 330 329 328 327 326 325 325 325 325 325 326 326 326 326 326 326 326 326 326 326 326 326 326 326 326 326 327 327 327 326 326 326 327 327 328 329 329 328 328 328 328 327 327 327 327 328 329 329 329 330 330 331 332 332 332 333 333 334 334 335 335 334 334 334 334 335 335
344 340 338 336 335 334 334 334 334 334 334 334 333 333 333 332 331 331 330 329 328 327 326 325 325 325 325 326 326 326 327 327 327 327 327 327 327 327 327 326 327 327 327 327 327 327 328 328 327 327 327 328 329 330 330 330 330 329 329 329 329 328 328 328 329 329 330 330 331 331 332 332 333 333 334 334 334 335 335 335 335 335 335 335 336 336 336
345 341 339 337 335 333 332 333 333 334 333 333 332 332 331 330 329 328 328 327 326 326 326 326 326 326 327 327 327 328 328 328 328 328 328 328 328 327 327 327 327 328 328 328 329 329 329 328 328 329 329 330 331 331 331 331 331 331 330 330 329 329 329 329 330 330 331 332 332 333 333 334 334 335 335 336 336 335 336 336 336 336 336 336 337 337 337
347 343 340 337 334 332 332 333 334 334 333 332 331 330 329 328 327 327 327 326 326 326 327 327 327 328 328 328 329 329 329 329 329 329 329 329 328 328 328 328 328 329 330 330 330 330 329 329 330 330 331 332 332 332 332 332 332 331 331 330 330 330 330 331 331 331 332 333 334 334 334 335 335 336 337 337 337 337 337 337 338 338 337 337 337 337 337
347 345 341 338 335 333 333 333 334 334 333 332 331 329 328 328 327 327 327 327 327 328 328 328 329 329 329 330 330 330 330 330 330 330 329 329 329 329 329 329 329 330 331 331 331 331 331 331 331 332 333 333 333 333 333 333 333 332 332 331 330 331 331 332 332 333 334 334 335 335 335 336 336 337 338 338 338 338 338 338 338 338 338 338 337 337 337
Height
10664 10664 10663 10661 10660 10659 10657 10656 10654 10652 10650 10648 10646 10644 10642 10640 10639 10638 10636 10635 10634 10634 10633 10632 10631 10630 10628 10627 10626 10625 10623 10622 10620 10619 10618 10616 10615 10613 10612 10610 10609 10607 10606 10604 10602 10600 10597 10593 10592 10590 10588 10585 10584 10582 10579 10577 10575 10572 10570 10566 10563 10561 10558 10555 10551 10545 10540 10537 10536 10534 10530 10526 10523 10520 10517 10513 10509 10505 10502 10499 10497 10495 10489 10482 10479 10479 10473
10662 10661 10659 10658 10656 10655 10654 10652 10650 10648 10646 10644 10643 10641 10639 10638 10636 10635 10634 10633 10632 10631 10631 10630 10629 10628 10627 10625 10624 10622 10621 10619 10618 10616 10615 10613 10612 10610 10608 10607 10605 10603 10601 10599 10597 10595 10592 10589 10586 10585 10583 10580 10578 10576 10574 10572 10570 10567 10565 10561 10558 10555 10552 10550 10547 10542 10537 10534 10532 10529 10525 10521 10518 10515 10511 10508 10503 10499 10496 10492 10490 10488 10484 10475 10469 10468 10464
10659 10658 10656 10654 10653 10652 10650 10648 10647 10645 10643 10641 10640 10638 10637 10636 10635 10634 10633 10632 10631 10629 10628 10628 10627 10626 10625 10623 10621 10620 10618 10616 10615 10613 10612 10610 10608 10606 10605 10603 10601 10599 10597 10595 10592 10590 10588 10585 10582 10580 10577 10575 10573 10571 10569 10567 10565 10562 10560 10557 10553 10549 10546 10544 10543 10540 10537 10534 10530 10526 10521 10517 10513 10509 10506 10502 10497 10493 10488 10485 10482 10480 10478 10470 10460 10459 10458
10655 10654 10653 10651 10649 10648 10647 10645 10643 10641 10639 10638 10637 10636 10635 10634 10633 10632 10631 10630 10629 10628 10627 10626 10625 10624 10622 10620 10618 10617 10615 10613 10612 10610 10608 10606 10604 10603 10601 10598 10597 10595 10592 10590 10587 10585 10583 10580 10578 10575 10573 10571 10569 10567 10565 10562 10560 10558 10555 10552 10549 10545 10542 10539 10537 10535 10534 10531 10527 10524 10519 10515 10510 10505 10501 10496 10492 10487 10481 10477 10474 10471 10470 10466 10453 10448 10449
10652 10651 10649 10648 10646 10644 10643 10641 10640 10638 10637 10636 10634 10634 10633 10632 10631 10630 10629 10628 10626 10625 10625 10623 10622 10621 10619 10617 10615 10613 10612 10610 10608 10606 10605 10603 10600 10599 10597 10595 10593 10590 10588 10585 10583 10580 10577 10575 10573 10571 10568 10567 10565 10563 10560 10558 10555 10553 10550 10548 10545 10542 10538 10535 10532 10530 10530 10527 10522 10519 10516 10511 10507 10502 10496 10491 10486 10481 10474 10468 10465 10461 10459 10458 10449 10439 10436
10649 10647 10646 10644 10642 10641 10639 10638 10637 10635 10634 10633 10632 10632 10631 10630 10629 10627 10626 10625 10624 10623 10622 10621 10619 10618 10616 10614 10612 10610 10608 10606 10604 10603 10601 10599 10597 10595 10593 10591 10588 10586 10584 10581 10578 10575 10573 10570 10568 10566 10564 10562 10561 10558 10556 10553 10551 10548 10546 10544 10542 10538 10535 10531 10527 10523 10524 10522 10517 10514 10510 10506 10502 10498 10492 10487 10481 10475 10468 10460 10455 10451 10448 10446 10442 10433 10425
10645 10644 10642 10641 10639 10637 10636 10635 10634 10633 10632 10631 10630 10630 10629 10627 10626 10625 10624 10623 10622 10621 10620 10618 10616 10615 10613 10611 10609 10607 10605 10603 10601 10599 10597 10595 10593 10591 10589 10586 10584 10582 10579 10577 10574 10571 10569 10566 10564 10562 10560 10558 10556 10554 10551 10549 10547 10545 10543 10540 10538 10536 10532 10528 10523 10517 10515 10515 10511 10507 10504 10499 10495 10490 10485 10480 10474 10468 10461 10452 10445 10442 10438 10434 10430 10425 10416
10642 10640 10639 10637 10636 10634 10633 10632 10632 10631 10630 10629 10628 10627 10626 10625 10624 10623 10622 10621 10619 10618 10617 10615 10613 10611 10609 10608 10606 10604 10602 10600 10598 10595 10593 10591 10589 10587 10584 10582 10580 10577 10575 10572 10570 10567 10565 10563 10560 10558 10555 10553 10551 10549 10547 10545 10543 10541 10539 10537 10535 10532 10528 10525 10521 10513 10508 10507 10504 10499 10496 10492 10487 10482 10477 10471 10466 10461 10453 10444 10435 10431 10429 10423 10416 10412 10406
10638 10636 10635 10634 10633 10632 10631 10630 10629 10629 10628 10627 10626 10625 10624 10623 10622 10621 10619 10618 10616 10615 10613 10612 10610 10608 10606 10604 10602 10600 10598 10596 10594 10591 10589 10587 10585 10582 10580 10578 10575 10573 10571 10568 10566 10564 10561 10559 10556 10554 10551 10549 10547 10546 10544 10542 10540 10537 10535 10533 10530 10528 10525 10521 10518 10512 10504 10500 10497 10492 10489 10485 10480 10475 10469 10463 10458 10453 10445 10434 10424 10419 10419 10415 10406 10399 10394
10634 10633 10632 10631 10631 10630 10629 10628 10627 10626 10625 10625 10624 10623 10622 10621 10620 10619 10617 10615 10614 10612 10610 10608 10607 10605 10603 10601 10599 10597 10595 10592 10590 10588 10585 10583 10581 10578 10576 10573 10571 10569 10567 10564 10562 10559 10557 10554 10552 10550 10548 10546 10544 10543 10541 10539 10536 10534 10531 10529 10526 10523 10521 10517 10514 10509 10502 10496 10492 10487 10482 10479 10474 10468 10461 10455 10450 10444 10436 10425 10413 10405 10405 10402 10396 10389 10382
10631 10631 10630 10629 10629 10628 10627 10626 10625 10624 10623 10623 10622 10621 10620 10619 10617 10616 10614 10612 10611 10609 10607 10605 10604 10602 10600 10598 10595 10593 10591 10588 10586 10584 10582 10579 10577 10574 10572 10569 10567 10565 10562 10560 10557 10555 10553 10550 10548 10546 10544 10543 10541 10540 10538 10535 10533 10531 10527 10525 10521 10518 10516 10512 10509 10505 10499 10492 10487 10481 10476 10472 10467 10460 10453 10447 10442 10437 10431 10420 10405 10396 10392 10386 10379 10374 10367
10629 10629 10628 10627 10627 10626 10625 10625 10624 10623 10622 10621 10620 10619 10617 10616 10614 10613 10612 10609 10608 10606 10604 10602 10600 10598 10596 10594 10592 10590 10587 10585 10583 10580 10578 10575 10573 10571 10568 10565 10563 10560 10558 10556 10553 10551 10549 10546 10545 10543 10542 10540 10538 10537 10535 10532 10529 10526 10523 10520 10517 10513 10510 10507 10503 10500 10495 10489 10482 10476 10471 10465 10459 10452 10445 10440 10434 10428 10424 10414 10398 10386 10382 10375 10366 10359 10353
10627 10627 10626 10626 10625 10625 10624 10623 10622 10621 10620 10619 10618 10616 10615 10613 10612 10610 10609 10606 10604 10603 10601 10599 10597 10595 10593 10590 10588 10586 10584 10581 10579 10577 10574 10572 10569 10567 10564 10561 10559 10556 10554 10551 10549 10547 10545 10543 10542 10541 10539 10537 10535 10533 10531 10528 10525 10522 10519 10516 10512 10508 10505 10501 10497 10493 10488 10483 10475 10468 10463 10458 10451 10443 10437 10431 10424 10416 10412 10407 10392 10377 10372 10367 10359 10352 10343
10626 10626 10625 10624 10623 10623 10622 10621 10620 10619 10618 10616 10615 10613 10612 10611 10609 10607 10605 10603 10601 10600 10598 10596 10593 10591 10589 10587 10585 10582 10580 10578 10576 10573 10571 10568 10565 10562 10560 10557 10554 10551 10549 10547 10545 10543 10542 10541 10539 10538 10536 10534 10532 10530 10527 10524 10521 10517 10513 10510 10507 10502 10497 10493 10489 10485 10480 10475 10468 10460 10454 10447 10439 10432 10426 10421 10415 10406 10401 10400 10390 10375 10365 10358 10350 10343 10335
10625 10624 10623 10622 10622 10621 10620 10619 10618 10617 10615 10614 10612 10611 10609 10608 10606 10604 10602 10600 10598 10596 10594 10592 10590 10588 10586 10583 10581 10579 10576 10574 10572 10569 10567 10564 10561 10558 10555 10552 10550 10547 10545 10544 10542 10541 10540 10538 10537 10535 10533 10531 10528 10525 10522 10519 10515 10511 10508 10504 10500 10495 10490 10485 10481 10476 10470 10465 10460 10453 10447 10439 10430 10422 10416 10411 10404 10396 10388 10385 10378 10365 10353 10345 10337 10329 10321
10623 10622 10622 10621 10620 10619 10618 10617 10616 10614 10613 10611 10610 10608 10607 10605 10603 10601 10599 10597 10595 10593 10591 10589 10586 10584 10582 10580 10577 10575 10573 10570 10568 10565 10562 10559 10556 10553 10550 10548 10546 10544 10543 10541 10540 10539 10538 10536 10534 10532 10530 10527 10524 10521 10517 10514 10510 10506 10502 10499 10494 10488 10483 10477 10472 10466 10460 10454 10448 10441 10436 10430 10421 10413 10407 10400 10392 10384 10376 10370 10364 10352 10339 10327 10320 10313 10304
10622 10621 10620 10619 10618 10617 10616 10615 10613 10612 10611 10609 10607 10605 10604 10602 10600 10598 10596 10594 10592 10590 10587 10585 10583 10581 10578 10576 10574 10571 10569 10566 10564 10561 10558 10555 10552 10549 10547 10545 10543 10542 10540 10539 10538 10537 10535 10533 10531 10528 10526 10523 10520 10517 10514 10509 10505 10501 10496 10492 10487 10481 10475 10469 10463 10457 10450 10444 10438 10430 10422 10416 10408 10402 10396 10389 10380 10370 10361 10355 10349 10342 10330 10315 10303 10297 10291
10620 10619 10618 10617 10616 10615 10614 10612 10611 10609 10608 10606 10604 10602 10601 10599 10597 10595 10593 10591 10589 10586 10584 10582 10579 10577 10574 10572 10570 10567 10565 10562 10559 10556 10553 10550 10548 10546 10544 10542 10541 10540 10539 10537 10535 10534 10532 10530 10528 10525 10522 10519 10516 10513 10509 10505 10500 10496 10491 10486 10480 10474 10468 10462 10456 10450 10442 10435 10429 10422 10413 10404 10395 10389 10384 10377 10370 10360 10350 10340 10331 10325 10320 10309 10293 10282 10274
10618 10617 10616 10615 10614 10613 10611 10610 10608 10607 10605 10603 10601 10600 10598 10596 10594 10592 10590 10587 10585 10583 10580 10578 10575 10573 10570 10568 10565 10563 10560 10557 10554 10551 10549 10546 10545 10543 10541 10540 10539 10538 10536 10535 10533 10531 10529 10526 10525 10522 10518 10515 10511 10508 10504 10500 10495 10490 10486 10481 10474 10468 10462 10456 10450 10442 10434 10427 10421 10414 10405 10395 10385 10377 10370 10362 10355 10348 10341 10333 10321 10307 10300 10294 10282 10266 10253
10616 10615 10614 10613 10612 10610 10609 10607 10606 10604 10602 10600 10599 10597 10595 10593 10590 10588 10586 10584 10581 10579 10576 10574 10571 10569 10566 10563 10561 10558 10555 10552 10550 10547 10545 10543 10542 10541 10539 10538 10537 10535 10534 10532 10530 10528 10525 10523 10521 10518 10514 10510 10506 10502 10498 10494 10489 10484 10479 10474 10468 10462 10455 10449 10442 10434 10426 10419 10412 10405 10398 10387 10377 10370 10362 10351 10341 10333 10326 10320 10311 10295 10280 10269 10259 10245 10230
10614 10613 10612 10611 10609 10608 10606 10605 10603 10601 10599 10597 10596 10594 10591 10589 10587 10585 10582 10580 10577 10575 10572 10570 10567 10564 10562 10559 10556 10553 10551 10548 10546 10544 10542 10541 10540 10539 10537 10536 10534 10532 10531 10529 10527 10525 10522 10519 10516 10513 10510 10506 10501 10496 10492 10488 10483 10478 10472 10467 10461 10455 10448 10441 10433 10425 10418 10411 10403 10394 10386 10376 10366 10358 10351 10340 10327 10315 10304 10294 10286 10276 10261 10247 10235 10224 10213
10612 10611 10610 10608 10607 10605 10604 10602 10600 10598 10596 10594 10592 10590 10588 10586 10583 10581 10578 10576 10573 10570 10568 10565 10563 10560 10557 10555 10552 10549 10547 10545 10543 10542 10540 10539 10537 10536 10535 10533 10532 10530 10528 10526 10523 10521 10518 10515 10512 10508 10504 10500 10496 10491 10485 10480 10476 10471 10465 10459 10452 10446 10440 10433 10424 10415 10407 10401 10395 10386 10376 10365 10354 10342 10333 10322 10309 10295 10282 10270 10258 10249 10239 10228 10218 10210 10202
10610 10609 10607 10606 10604 10602 10601 10599 10597 10595 10593 10591 10589 10587 10584 10582 10580 10577 10575 10572 10569 10566 10564 10561 10559 10556 10554 10551 10549 10547 10545 10543 10541 10539 10538 10536 10535 10534 10532 10531 10529 10527 10525 10523 10520 10517 10514 10511 10507 10503 10499 10494 10490 10485 10479 10473 10468 10462 10456 10451 10444 10436 10430 10423 10415 10407 10397 10388 10381 10372 10361 10350 10338 10326 10315 10305 10293 10280 10267 10256 10244 10233 10224 10215 10206 10198 10189
10608 10606 10605 10603 10601 10599 10598 10596 10594 10592 10590 10587 10585 10583 10581 10578 10576 10573 10571 10568 10566 10563 10560 10558 10556 10553 10551 10549 10546 10544 10542 10540 10538 10537 10535 10534 10533 10531 10530 10528 10526 10524 10521 10518 10516 10513 10509 10506 10502 10498 10493 10488 10483 10478 10473 10466 10460 10453 10447 10441 10435 10428 10421 10413 10405 10396 10386 10377 10367 10358 10347 10337 10326 10316 10305 10293 10282 10269 10257 10246 10237 10229 10219 10208 10197 10187 10176
10605 10604 10602 10600 10598 10597 10595 10593 10591 10589 10586 10584 10582 10580 10577 10575 10573 10570 10568 10565 10563 10560 10558 10555 10553 10551 10549 10546 10544 10542 10540 10538 10536 10535 10533 10532 10530 10529 10527 10525 10523 10520 10517 10514 10511 10508 10505 10501 10497 10492 10487 10481 10476 10470 10465 10459 10452 10445 10439 10432 10426 10419 10412 10404 10396 10386 10375 10367 10358 10348 10336 10324 10312 10302 10293 10285 10277 10267 10255 10241 10229 10218 10208 10197 10185 10173 10161
10603 10601 10599 10597 10596 10594 10592 10590 10587 10585 10583 10581 10579 10576 10574 10572 10569 10567 10565 10562 10560 10557 10555 10553 10550 10548 10546 10544 10542 10540 10538 10536 10535 10533 10532 10530 10528 10526 10524 10522 10519 10516 10513 10510 10506 10503 10500 10495 10491 10486 10480 10474 10468 10462 10456 10449 10443 10437 10431 10424 10417 10410 10403 10395 10387 10377 10365 10355 10347 10339 10330 10320 10307 10294 10285 10276 10267 10257 10244 10229 10216 10204 10192 10182 10172 10161 10148
10600 10598 10596 10595 10593 10591 10589 10586 10584 10582 10580 10578 10575 10573 10571 10569 10567 10564 10562 10559 10557 10555 10552 10550 10548 10546 10544 10542 10540 10538 10536 10534 10533 10531 10530 10528 10526 10523 10521 10518 10515 10512 10508 10505 10501 10498 10494 10490 10485 10479 10474 10467 10460 10454 10447 10440 10434 10428 10422 10415 10407 10400 10393 10384 10375 10366 10356 10345 10336 10329 10322 10315 10305 10290 10276 10263 10251 10239 10227 10214 10202 10191 10179 10168 10158 10150 10140
10597 10595 10594 10592 10590 10588 10585 10583 10581 10579 10577 10575 10572 10570 10568 10566 10564 10562 10559 10557 10555 10552 10550 10548 10546 10544 10542 10540 10538 10536 10534 10533 10531 10529 10527 10525 10522 10520 10517 10514 10511 10507 10504 10500 10496 10492 10488 10483 10478 10473 10466 10460 10453 10446 10439 10432 10426 10420 10412 10405 10396 10388 10380 10372 10363 10354 10344 10334 10323 10312 10302 10294 10285 10272 10258 10246 10234 10223 10212 10199 10187 10175 10164 10153 10143 10135 10129
10595 10593 10591 10589 10587 10585 10582 10580 10578 10576 10574 10572 10570 10568 10566 10564 10561 10559 10557 10555 10552 10550 10548 10546 10544 10542 10540 10538 10536 10534 10532 10531 10529 10527 10524 10522 10519 10516 10513 10510 10507 10503 10499 10495 10490 10486 10481 10476 10470 10465 10459 10452 10445 10438 10431 10425 10418 10411 10402 10393 10384 10375 10365 10356 10348 10339 10328 10317 10305 10292 10278 10268 10261 10252 10240 10227 10215 10204 10194 10183 10171 10160 10150 10140 10131 10122 10113
10592 10590 10588 10586 10584 10582 10580 10578 10576 10574 10572 10570 10568 10566 10564 10561 10559 10557 10555 10553 10551 10548 10546 10544 10542 10540 10538 10536 10534 10532 10530 10528 10526 10524 10521 10519 10516 10513 10510 10506 10502 10498 10494 10489 10484 10479 10474 10468 10462 10456 10450 10444 10438 10430 10423 10416 10409 10400 10392 10382 10373 10363 10353 10342 10331 10321 10312 10302 10291 10276 10258 10244 10236 10229 10220 10208 10197 10187 10179 10170 10159 10150 10140 10130 10120 10110 10098
10590 10588 10586 10584 10582 10580 10578 10576 10574 10572 10570 10568 10566 10564 10562 10560 10558 10555 10553 10551 10549 10547 10544 10542 10540 10538 10536 10534 10532 10530 10528 10525 10523 10520 10518 10515 10512 10509 10505 10502 10497 10493 10488 10483 10478 10473 10467 10461 10455 10449 10442 10436 10429 10421 10414 10407 10399 10389 10379 10370 10360 10350 10340 10329 10318 10306 10295 10287 10280 10269 10251 10231 10217 10209 10203 10195 10185 10176 10168 10159 10149 10138 10128 10117 10104 10092 10081
10587 10585 10584 10582 10580 10578 10576 10574 10572 10570 10568 10566 10564 10562 10560 10558 10556 10554 10551 10549 10547 10545 10542 10540 10538 10536 10534 10532 10530 10528 10525 10522 10520 10517 10514 10511 10508 10504 10500 10497 10492 10488 10483 10478 10473 10467 10461 10455 10448 10441 10434 10427 10419 10411 10403 10396 10389 10380 10370 10360 10351 10340 10329 10318 10306 10294 10281 10270 10262 10256 10247 10232 10216 10204 10196 10188 10177 10167 10157 10148 10137 10125 10114 10103 10091 10078 10066
10585 10583 10582 10580 10578 10576 10574 10572 10571 10569 10567 10565 10563 10560 10558 10556 10554 10552 10549 10547 10545 10543 10541 10538 10536 10534 10532 10530 10527 10525 10522 10519 10517 10514 10511 10507 10504 10500 10496 10491 10487 10482 10478 10473 10468 10462 10456 10449 10441 10434 10425 10417 10409 10401 10393 10385 10377 10369 10360 10350 10340 10328 10316 10304 10292 10280 10268 10256 10244 10236 10230 10223 10212 10201 10191 10181 10169 10157 10146 10134 10123 10113 10101 10090 10080 10069 10057
10584 10582 10580 10578 10577 10575 10573 10571 10569 10567 10565 10563 10561 10559 10557 10554 10552 10550 10548 10545 10543 10541 10539 10537 10534 10532 10530 10527 10525 10522 10519 10516 10513 10510 10507 10503 10499 10495 10491 10487 10482 10477 10472 10467 10462 10455 10448 10441 10433 10425 10416 10408 10399 10391 10383 10375 10366 10356 10347 10337 10327 10316 10305 10293 10280 10267 10255 10245 10234 10222 10213 10205 10195 10186 10177 10167 10156 10144 10132 10120 10110 10101 10092 10081 10071 10060 10048
10583 10581 10579 10577 10575 10574 10572 10570 10568 10566 10564 10562 10559 10557 10555 10553 10551 10548 10546 10544 10542 10539 10537 10535 10532 10529 10527 10525 10522 10519 10516 10513 10509 10506 10502 10499 10495 10491 10487 10482 10477 10472 10466 10460 10454 10447 10439 10431 10424 10415 10407 10398 10390 10381 10373 10365 10356 10346 10336 10327 10317 10306 10297 10286 10274 10259 10244 10233 10223 10213 10202 10192 10181 10169 10159 10149 10139 10130 10121 10110 10099 10089 10080 10070 10059 10048 10037
10581 10580 10578 10576 10574 10572 10570 10568 10566 10564 10562 10560 10558 10556 10554 10551 10549 10547 10545 10542 10540 10538 10535 10532 10530 10527 10524 10521 10519 10516 10512 10509 10506 10502 10498 10495 10490 10486 10481 10476 10471 10465 10459 10452 10445 10438 10430 10421 10413 10405 10396 10387 10379 10370 10362 10354 10344 10335 10324 10314 10304 10293 10283 10274 10263 10251 10236 10222 10210 10199 10187 10176 10165 10155 10144 10134 10125 10117 10109 10100 10091 10082 10072 10063 10053 10043 10033
10580 10579 10577 10575 10573 10571 10569 10567 10565 10563 10561 10559 10556 10554 10552 10550 10547 10545 10543 10541 10538 10536 10533 10531 10528 10525 10522 10519 10516 10513 10509 10506 10502 10498 10494 10489 10485 10480 10475 10470 10463 10457 10451 10444 10437 10429 10421 10412 10403 10394 10384 10375 10367 10358 10349 10340 10330 10320 10310 10299 10288 10278 10267 10257 10248 10239 10227 10215 10202 10190 10179 10168 10156 10146 10135 10125 10116 10107 10098 10089 10081 10074 10065 10056 10047 10037 10026
10580 10578 10576 10574 10572 10570 10568 10566 10564 10562 10559 10557 10555 10553 10551 10548 10546 10544 10541 10539 10537 10534 10532 10529 10526 10523 10520 10517 10513 10510 10506 10502 10498 10493 10489 10483 10478 10473 10468 10462 10456 10449 10443 10436 10428 10421 10412 10403 10393 10383 10374 10364 10355 10346 10336 10325 10315 10305 10294 10283 10273 10262 10251 10241 10232 10224 10216 10207 10198 10189 10180 10172 10161 10149 10136 10123 10110 10100 10090 10079 10069 10061 10051 10042 10034 10025 10014
10579 10577 10575 10573 10571 10569 10566 10564 10563 10560 10558 10556 10554 10551 10549 10547 10545 10542 10540 10537 10535 10532 10529 10527 10524 10520 10517 10514 10510 10506 10502 10497 10493 10488 10483 10477 10472 10466 10460 10454 10447 10441 10435 10427 10419 10411 10402 10392 10382 10372 10362 10352 10342 10332 10322 10311 10300 10290 10279 10268 10257 10246 10235 10225 10215 10206 10198 10189 10181 10173 10165 10158 10151 10143 10133 10120 10107 10094 10082 10069 10057 10047 10038 10028 10020 10012 10002
10579 10577 10574 10572 10570 10568 10566 10563 10561 10559 10557 10555 10552 10550 10548 10545 10543 10541 10538 10535 10532 10530 10527 10524 10520 10517 10513 10509 10505 10501 10496 10492 10487 10482 10476 10470 10465 10459 10453 10446 10440 10433 10426 10418 10409 10399 10390 10381 10370 10360 10350 10339 10329 10319 10308 10297 10286 10276 10265 10255 10243 10232 10222 10211 10202 10192 10183 10173 10164 10155 10146 10137 10130 10124 10116 10106 10096 10085 10074 10062 10049 10039 10028 10018 10009 10000 9991
10578 10576 10574 10571 10569 10567 10565 10563 10560 10558 10556 10553 10551 10548 10546 10544 10541 10539 10536 10533 10530 10527 10523 10520 10516 10512 10508 10504 10500 10496 10491 10486 10481 10475 10469 10464 10458 10452 10445 10439 10432 10424 10416 10408 10399 10389 10379 10369 10359 10348 10337 10327 10317 10307 10296 10285 10274 10263 10253 10243 10232 10221 10211 10201 10191 10181 10172 10162 10152 10143 10134 10124 10115 10107 10099 10090 10080 10071 10062 10052 10041 10029 10019 10009 9999 9990 9981
10576 10574 10572 10570 10568 10566 10564 10561 10559 10557 10554 10552 10549 10547 10544 10541 10539 10536 10533 10530 10527 10523 10519 10516 10512 10508 10504 10499 10495 10490 10485 10479 10474 10469 10463 10457 10451 10445 10438 10431 10423 10416 10407 10398 10388 10378 10368 10357 10346 10336 10325 10315 10305 10295 10285 10275 10264 10253 10242 10233 10222 10211 10201 10191 10182 10172 10163 10153 10143 10133 10123 10113 10103 10094 10086 10077 10067 10058 10049 10039 10028 10017 10006 9996 9987 9978 9970
10575 10573 10571 10568 10566 10564 10561 10559 10557 10555 10552 10550 10547 10544 10541 10539 10536 10532 10529 10526 10523 10519 10516 10512 10508 10504 10499 10495 10490 10485 10480 10474 10468 10463 10457 10450 10444 10437 10430 10423 10414 10406 10398 10388 10378 10367 10356 10345 10335 10324 10314 10303 10294 10285 10274 10264 10253 10243 10232 10222 10213 10202 10191 10181 10172 10162 10152 10141 10131 10122 10112 10102 10092 10083 10074 10066 10056 10046 10036 10025 10015 10004 9994 9985 9975 9966 9958
10574 10571 10569 10566 10564 10562 10559 10557 10554 10552 10549 10547 10544 10541 10538 10535 10532 10529 10526 10522 10519 10515 10511 10508 10504 10499 10494 10489 10485 10480 10474 10469 10463 10457 10450 10444 10436 10429 10422 10414 10405 10396 10387 10377 10367 10356 10345 10334 10323 10313 10303 10293 10284 10275 10266 10255 10245 10234 10224 10213 10203 10192 10182 10171 10161 10152 10143 10133 10123 10113 10103 10094 10084 10073 10064 10055 10046 10036 10026 10016 10005 9993 9983 9973 9964 9954 9945
10572 10570 10567 10565 10562 10560 10557 10555 10552 10549 10547 10544 10541 10538 10536 10532 10529 10526 10523 10519 10515 10511 10507 10503 10498 10494 10489 10484 10479 10474 10469 10463 10457 10450 10443 10436 10428 10420 10412 10404 10395 10386 10376 10366 10355 10344 10333 10322 10313 10303 10294 10285 10276 10267 10258 10248 10237 10226 10215 10205 10194 10183 10172 10162 10152 10144 10135 10126 10116 10106 10096 10086 10076 10066 10055 10045 10035 10025 10016 10007 9997 9986 9975 9965 9955 9944 9934
10571 10569 10566 10563 10561 10558 10555 10552 10550 10547 10544 10541 10538 10535 10533 10529 10526 10522 10519 10515 10511 10507 10503 10498 10494 10489 10484 10479 10474 10469 10463 10456 10450 10443 10435 10427 10419 10410 10401 10393 10384 10375 10365 10355 10344 10333 10323 10312 10303 10294 10285 10276 10267 10258 10249 10238 10228 10217 10207 10197 10186 10175 10164 10153 10144 10136 10127 10117 10107 10096 10086 10076 10067 10056 10045 10035 10025 10016 10006 9996 9987 9977 9967 9958 9949 9940 9929
10570 10567 10564 10561 10558 10555 10552 10550 10547 10544 10541 10538 10535 10532 10529 10526 10522 10519 10515 10511 10507 10503 10499 10494 10489 10484 10479 10474 10468 10462 10456 10449 10442 10434 10426 10417 10408 10399 10390 10381 10372 10364 10354 10344 10334 10323 10313 10303 10293 10284 10275 10267 10258 10249 10239 10229 10218 10208 10198 10188 10178 10167 10156 10145 10135 10126 10117 10108 10097 10087 10077 10067 10057 10046 10035 10024 10015 10006 9996 9986 9975 9966 9957 9948 9941 9933 9924
10567 10565 10562 10559 10556 10553 10550 10547 10544 10541 10538 10535 10532 10528 10525 10522 10518 10515 10511 10507 10503 10498 10494 10489 10484 10479 10473 10468 10461 10455 10448 10441 10433 10424 10415 10406 10397 10387 10378 10369 10360 10351 10343 10333 10323 10313 10303 10293 10284 10274 10266 10257 10248 10239 10229 10219 10208 10198 10188 10178 10168 10158 10148 10137 10127 10118 10109 10099 10089 10079 10068 10057 10046 10036 10025 10014 10003 9994 9985 9976 9966 9957 9949 9941 9933 9924 9915
10565 10562 10559 10556 10553 10550 10547 10544 10541 10538 10535 10532 10528 10525 10521 10518 10514 10510 10506 10502 10498 10494 10489 10484 10479 10473 10467 10460 10454 10447 10439 10431 10423 10414 10404 10395 10385 10375 10366 10357 10349 10340 10332 10323 10314 10303 10294 10284 10274 10264 10255 10246 10237 10228 10218 10209 10199 10188 10178 10168 10158 10149 10139 10128 10118 10108 10099 10090 10080 10069 10058 10047 10037 10026 10015 10004 9993 9984 9976 9968 9959 9949 9940 9931 9923 9915 9906
10563 10560 10556 10553 10550 10547 10544 10542 10539 10535 10532 10529 10525 10521 10518 10514 10510 10506 10502 10498 10493 10489 10483 10478 10472 10466 10459 10452 10445 10438 10430 10421 10412 10403 10393 10384 10374 10364 10354 10346 10338 10329 10321 10313 10303 10293 10284 10274 10264 10254 10244 10234 10226 10217 10208 10199 10189 10178 10168 10158 10149 10139 10129 10119 10108 10098 10088 10079 10069 10058 10047 10037 10027 10017 10007 9996 9986 9975 9966 9959 9950 9940 9929 9919 9912 9905 9897
10560 10557 10554 10551 10547 10544 10541 10538 10535 10532 10529 10525 10522 10518 10514 10510 10506 10502 10497 10493 10488 10482 10476 10470 10464 10457 10450 10443 10436 10428 10420 10411 10402 10392 10383 10373 10364 10353 10343 10334 10326 10318 10310 10302 10292 10283 10273 10264 10254 10245 10235 10225 10216 10208 10198 10189 10179 10169 10159 10149 10139 10129 10120 10110 10099 10088 10078 10068 10058 10048 10037 10027 10018 10008 9999 9989 9979 9968 9958 9948 9940 9931 9921 9911 9902 9895 9888
10557 10554 10551 10547 10544 10540 10537 10534 10531 10528 10525 10521 10517 10513 10509 10505 10501 10496 10491 10486 10481 10475 10469 10462 10455 10448 10441 10433 10426 10417 10409 10400 10391 10382 10372 10362 10352 10342 10332 10323 10315 10308 10301 10292 10282 10272 10262 10252 10243 10234 10226 10216 10207 10199 10190 10180 10170 10159 10149 10139 10129 10120 10111 10102 10091 10080 10069 10058 10048 10039 10029 10019 10010 10001 9992 9982 9973 9963 9952 9942 9933 9924 9915 9904 9894 9884 9877